Time,TemperatureF,DewpointF,PressureIn,WindDirection,WindDirectionDegrees,WindSpeedMPH,WindSpeedGustMPH,Humidity,HourlyPrecipIn,Conditions,Clouds,dailyrainin,SolarRadiationWatts/m^2,SoftwareType,DateUTC
2013-06-03 00:22:00,39.0,20.0,-100.00,ENE,64,8.0,9.0,47,0.00,,,0.00,0.000000,,2013-06-03 06:22:00,
2013-06-03 00:32:00,39.0,20.0,-100.00,ENE,64,8.0,9.0,47,0.00,,,0.00,0.000000,,2013-06-03 06:32:00,
2013-06-03 00:42:00,39.0,20.0,-100.00,ENE,64,8.0,9.0,47,0.00,,,0.00,0.000000,,2013-06-03 06:42:00,
2013-06-03 00:52:00,39.0,20.0,-100.00,ENE,64,8.0,9.0,47,0.00,,,0.00,0.000000,,2013-06-03 06:52:00,
2013-06-03 01:22:00,36.0,21.0,-100.00,ENE,60,8.0,9.0,55,0.00,,,0.00,0.000000,,2013-06-03 07:22:00,
2013-06-03 01:32:00,36.0,21.0,-100.00,ENE,60,8.0,9.0,55,0.00,,,0.00,0.000000,,2013-06-03 07:32:00,
2013-06-03 01:42:00,36.0,21.0,-100.00,ENE,60,8.0,9.0,55,0.00,,,0.00,0.000000,,2013-06-03 07:42:00,
2013-06-03 01:52:00,36.0,21.0,-100.00,ENE,60,8.0,9.0,55,0.00,,,0.00,0.000000,,2013-06-03 07:52:00,
2013-06-03 02:12:00,39.0,20.0,-100.00,ENE,69,7.0,9.0,47,0.00,,,0.00,0.000000,,2013-06-03 08:12:00,
2013-06-03 02:22:00,39.0,20.0,-100.00,ENE,69,7.0,9.0,47,0.00,,,0.00,0.000000,,2013-06-03 08:22:00,
2013-06-03 02:32:00,39.0,20.0,-100.00,ENE,69,7.0,9.0,47,0.00,,,0.00,0.000000,,2013-06-03 08:32:00,
2013-06-03 02:42:00,39.0,20.0,-100.00,ENE,69,7.0,9.0,47,0.00,,,0.00,0.000000,,2013-06-03 08:42:00,
2013-06-03 02:52:00,39.0,20.0,-100.00,ENE,69,7.0,9.0,47,0.00,,,0.00,0.000000,,2013-06-03 08:52:00,
2013-06-03 03:22:00,36.0,23.0,-100.00,NE,47,8.0,10.0,58,0.00,,,0.00,0.000000,,2013-06-03 09:22:00,
2013-06-03 03:33:00,36.0,23.0,-100.00,NE,47,8.0,10.0,58,0.00,,,0.00,0.000000,,2013-06-03 09:33:00,
2013-06-03 03:42:00,36.0,23.0,-100.00,NE,47,8.0,10.0,58,0.00,,,0.00,0.000000,,2013-06-03 09:42:00,
2013-06-03 03:52:00,36.0,23.0,-100.00,NE,47,8.0,10.0,58,0.00,,,0.00,0.000000,,2013-06-03 09:52:00,
2013-06-03 04:22:00,33.0,21.0,-100.00,ENE,61,9.0,10.0,62,0.00,,,0.00,0.000000,,2013-06-03 10:22:00,
2013-06-03 04:33:00,33.0,21.0,-100.00,ENE,61,9.0,10.0,62,0.00,,,0.00,0.000000,,2013-06-03 10:33:00,
2013-06-03 04:42:00,33.0,21.0,-100.00,ENE,61,9.0,10.0,62,0.00,,,0.00,0.000000,,2013-06-03 10:42:00,
2013-06-03 04:52:00,33.0,21.0,-100.00,ENE,61,9.0,10.0,62,0.00,,,0.00,0.000000,,2013-06-03 10:52:00,
2013-06-03 05:22:00,33.0,21.0,-100.00,NE,53,9.0,11.0,60,0.00,,,0.00,0.000000,,2013-06-03 11:22:00,
2013-06-03 05:32:00,33.0,21.0,-100.00,NE,53,9.0,11.0,60,0.00,,,0.00,0.000000,,2013-06-03 11:32:00,
2013-06-03 05:42:00,33.0,21.0,-100.00,NE,53,9.0,11.0,60,0.00,,,0.00,0.000000,,2013-06-03 11:42:00,
2013-06-03 05:52:00,33.0,21.0,-100.00,NE,53,9.0,11.0,60,0.00,,,0.00,0.000000,,2013-06-03 11:52:00,
2013-06-03 06:22:00,35.0,22.0,-100.00,NE,52,8.0,11.0,59,0.00,,,0.00,2.000000,,2013-06-03 12:22:00,
2013-06-03 06:32:00,35.0,22.0,-100.00,NE,52,8.0,11.0,59,0.00,,,0.00,2.000000,,2013-06-03 12:32:00,
2013-06-03 06:42:00,35.0,22.0,-100.00,NE,52,8.0,11.0,59,0.00,,,0.00,2.000000,,2013-06-03 12:42:00,
2013-06-03 06:52:00,35.0,22.0,-100.00,NE,52,8.0,11.0,59,0.00,,,0.00,2.000000,,2013-06-03 12:52:00,
2013-06-03 07:22:00,40.0,24.0,-100.00,ENE,64,5.0,9.0,53,0.00,,,0.00,96.000000,,2013-06-03 13:22:00,
2013-06-03 07:32:00,40.0,24.0,-100.00,ENE,64,5.0,9.0,53,0.00,,,0.00,96.000000,,2013-06-03 13:32:00,
2013-06-03 07:42:00,40.0,24.0,-100.00,ENE,64,5.0,9.0,53,0.00,,,0.00,96.000000,,2013-06-03 13:42:00,
2013-06-03 07:52:00,40.0,24.0,-100.00,ENE,64,5.0,9.0,53,0.00,,,0.00,96.000000,,2013-06-03 13:52:00,
2013-06-03 08:22:00,53.0,25.0,-100.00,NW,316,7.0,9.0,33,0.00,,,0.00,335.000000,,2013-06-03 14:22:00,
2013-06-03 08:32:00,53.0,25.0,-100.00,NW,316,7.0,9.0,33,0.00,,,0.00,335.000000,,2013-06-03 14:32:00,
2013-06-03 08:42:00,53.0,25.0,-100.00,NW,316,7.0,9.0,33,0.00,,,0.00,335.000000,,2013-06-03 14:42:00,
2013-06-03 08:52:00,53.0,25.0,-100.00,NW,316,7.0,9.0,33,0.00,,,0.00,335.000000,,2013-06-03 14:52:00,
2013-06-03 09:22:00,55.0,25.0,-100.00,NNW,327,7.0,10.0,31,0.00,,,0.00,558.000000,,2013-06-03 15:22:00,
2013-06-03 09:33:00,55.0,25.0,-100.00,NNW,327,7.0,10.0,31,0.00,,,0.00,558.000000,,2013-06-03 15:33:00,
2013-06-03 09:43:00,55.0,25.0,-100.00,NNW,327,7.0,10.0,31,0.00,,,0.00,558.000000,,2013-06-03 15:43:00,
2013-06-03 09:53:00,55.0,25.0,-100.00,NNW,327,7.0,10.0,31,0.00,,,0.00,558.000000,,2013-06-03 15:53:00,
2013-06-03 10:23:00,60.0,24.0,-100.00,SSW,202,5.0,8.0,25,0.00,,,0.00,783.000000,,2013-06-03 16:23:00,
2013-06-03 10:33:00,60.0,24.0,-100.00,SSW,202,5.0,8.0,25,0.00,,,0.00,783.000000,,2013-06-03 16:33:00,
2013-06-03 10:42:00,60.0,24.0,-100.00,SSW,202,5.0,8.0,25,0.00,,,0.00,783.000000,,2013-06-03 16:42:00,
2013-06-03 10:53:00,60.0,24.0,-100.00,SSW,202,5.0,8.0,25,0.00,,,0.00,783.000000,,2013-06-03 16:53:00,
2013-06-03 11:22:00,60.0,20.0,-100.00,South,173,5.0,11.0,21,0.00,,,0.00,827.000000,,2013-06-03 17:22:00,
2013-06-03 11:33:00,60.0,20.0,-100.00,South,173,5.0,11.0,21,0.00,,,0.00,827.000000,,2013-06-03 17:33:00,
2013-06-03 11:42:00,60.0,20.0,-100.00,South,173,5.0,11.0,21,0.00,,,0.00,827.000000,,2013-06-03 17:42:00,
2013-06-03 11:52:00,60.0,20.0,-100.00,South,173,5.0,11.0,21,0.00,,,0.00,827.000000,,2013-06-03 17:52:00,
2013-06-03 12:22:00,62.0,18.0,-100.00,SW,222,14.0,29.0,18,0.00,,,0.00,841.000000,,2013-06-03 18:22:00,
2013-06-03 12:32:00,62.0,18.0,-100.00,SW,222,14.0,29.0,18,0.00,,,0.00,841.000000,,2013-06-03 18:32:00,
2013-06-03 12:42:00,62.0,18.0,-100.00,SW,222,14.0,29.0,18,0.00,,,0.00,841.000000,,2013-06-03 18:42:00,
2013-06-03 12:52:00,62.0,18.0,-100.00,SW,222,14.0,29.0,18,0.00,,,0.00,841.000000,,2013-06-03 18:52:00,
2013-06-03 13:22:00,61.0,21.0,-100.00,WSW,250,10.0,33.0,21,0.00,,,0.00,614.000000,,2013-06-03 19:22:00,
2013-06-03 13:32:00,61.0,21.0,-100.00,WSW,250,10.0,33.0,21,0.00,,,0.00,614.000000,,2013-06-03 19:32:00,
2013-06-03 13:42:00,61.0,21.0,-100.00,WSW,250,10.0,33.0,21,0.00,,,0.00,614.000000,,2013-06-03 19:42:00,
2013-06-03 13:52:00,61.0,21.0,-100.00,WSW,250,10.0,33.0,21,0.00,,,0.00,614.000000,,2013-06-03 19:52:00,
2013-06-03 14:22:00,57.0,22.0,-100.00,SW,234,14.0,34.0,25,0.00,,,0.00,425.000000,,2013-06-03 20:22:00,
2013-06-03 14:32:00,57.0,22.0,-100.00,SW,234,14.0,34.0,25,0.00,,,0.00,425.000000,,2013-06-03 20:32:00,
2013-06-03 14:42:00,57.0,22.0,-100.00,SW,234,14.0,34.0,25,0.00,,,0.00,425.000000,,2013-06-03 20:42:00,
2013-06-03 14:52:00,57.0,22.0,-100.00,SW,234,14.0,34.0,25,0.00,,,0.00,425.000000,,2013-06-03 20:52:00,
2013-06-03 15:22:00,61.0,26.0,-100.00,SSW,192,7.0,38.0,26,0.00,,,0.00,588.000000,,2013-06-03 21:22:00,
2013-06-03 15:33:00,61.0,26.0,-100.00,SSW,192,7.0,38.0,26,0.00,,,0.00,588.000000,,2013-06-03 21:33:00,
2013-06-03 15:43:00,61.0,26.0,-100.00,SSW,192,7.0,38.0,26,0.00,,,0.00,588.000000,,2013-06-03 21:43:00,
2013-06-03 15:53:00,61.0,26.0,-100.00,SSW,192,7.0,38.0,26,0.00,,,0.00,588.000000,,2013-06-03 21:53:00,
2013-06-03 16:22:00,49.0,29.0,-100.00,WSW,237,8.0,30.0,45,0.00,,,0.00,248.000000,,2013-06-03 22:22:00,
2013-06-03 16:33:00,49.0,29.0,-100.00,WSW,237,8.0,30.0,45,0.00,,,0.00,248.000000,,2013-06-03 22:33:00,
2013-06-03 16:42:00,49.0,29.0,-100.00,WSW,237,8.0,30.0,45,0.00,,,0.00,248.000000,,2013-06-03 22:42:00,
2013-06-03 16:52:00,49.0,29.0,-100.00,WSW,237,8.0,30.0,45,0.00,,,0.00,248.000000,,2013-06-03 22:52:00,
2013-06-03 17:22:00,46.0,35.0,-100.00,NE,56,8.0,31.0,66,0.00,,,0.00,150.000000,,2013-06-03 23:22:00,
2013-06-03 17:32:00,46.0,35.0,-100.00,NE,56,8.0,31.0,66,0.00,,,0.00,150.000000,,2013-06-03 23:32:00,
2013-06-03 17:42:00,46.0,35.0,-100.00,NE,56,8.0,31.0,66,0.00,,,0.00,150.000000,,2013-06-03 23:42:00,
2013-06-03 17:52:00,46.0,35.0,-100.00,NE,56,8.0,31.0,66,0.00,,,0.00,150.000000,,2013-06-03 23:52:00,
2013-06-03 18:22:00,53.0,32.0,-100.00,WSW,254,4.0,14.0,44,0.00,,,0.00,489.000000,,2013-06-04 00:22:00,
2013-06-03 18:32:00,53.0,32.0,-100.00,WSW,254,4.0,14.0,44,0.00,,,0.00,489.000000,,2013-06-04 00:32:00,
2013-06-03 18:42:00,53.0,32.0,-100.00,WSW,254,4.0,14.0,44,0.00,,,0.00,489.000000,,2013-06-04 00:42:00,
2013-06-03 18:52:00,53.0,32.0,-100.00,WSW,254,4.0,14.0,44,0.00,,,0.00,489.000000,,2013-06-04 00:52:00,
2013-06-03 19:22:00,56.0,29.0,-100.00,WSW,249,6.0,12.0,35,0.00,,,0.00,384.000000,,2013-06-04 01:22:00,
2013-06-03 19:32:00,56.0,29.0,-100.00,WSW,249,6.0,12.0,35,0.00,,,0.00,384.000000,,2013-06-04 01:32:00,
2013-06-03 19:42:00,56.0,29.0,-100.00,WSW,249,6.0,12.0,35,0.00,,,0.00,384.000000,,2013-06-04 01:42:00,
2013-06-03 19:52:00,56.0,29.0,-100.00,WSW,249,6.0,12.0,35,0.00,,,0.00,384.000000,,2013-06-04 01:52:00,
2013-06-03 20:22:00,55.0,26.0,-100.00,WNW,287,4.0,10.0,32,0.00,,,0.00,175.000000,,2013-06-04 02:22:00,
2013-06-03 20:32:00,55.0,26.0,-100.00,WNW,287,4.0,10.0,32,0.00,,,0.00,175.000000,,2013-06-04 02:32:00,
2013-06-03 20:42:00,55.0,26.0,-100.00,WNW,287,4.0,10.0,32,0.00,,,0.00,175.000000,,2013-06-04 02:42:00,
2013-06-03 20:52:00,55.0,26.0,-100.00,WNW,287,4.0,10.0,32,0.00,,,0.00,175.000000,,2013-06-04 02:52:00,
2013-06-03 21:22:00,45.0,24.0,-100.00,ENE,63,4.0,7.0,43,0.00,,,0.00,9.000000,,2013-06-04 03:22:00,
2013-06-03 21:32:00,45.0,24.0,-100.00,ENE,63,4.0,7.0,43,0.00,,,0.00,9.000000,,2013-06-04 03:32:00,
2013-06-03 21:43:00,45.0,24.0,-100.00,ENE,63,4.0,7.0,43,0.00,,,0.00,9.000000,,2013-06-04 03:43:00,
2013-06-03 21:53:00,45.0,24.0,-100.00,ENE,63,4.0,7.0,43,0.00,,,0.00,9.000000,,2013-06-04 03:53:00,
2013-06-03 22:23:00,39.0,26.0,-100.00,ENE,62,8.0,10.0,60,0.00,,,0.00,0.000000,,2013-06-04 04:23:00,
2013-06-03 22:33:00,39.0,26.0,-100.00,ENE,62,8.0,10.0,60,0.00,,,0.00,0.000000,,2013-06-04 04:33:00,
2013-06-03 22:42:00,39.0,26.0,-100.00,ENE,62,8.0,10.0,60,0.00,,,0.00,0.000000,,2013-06-04 04:42:00,
2013-06-03 22:53:00,39.0,26.0,-100.00,ENE,62,8.0,10.0,60,0.00,,,0.00,0.000000,,2013-06-04 04:53:00,
2013-06-03 23:22:00,35.0,24.0,-100.00,ENE,62,7.0,9.0,64,0.00,,,0.00,0.000000,,2013-06-04 05:22:00,
2013-06-03 23:32:00,35.0,24.0,-100.00,ENE,62,7.0,9.0,64,0.00,,,0.00,0.000000,,2013-06-04 05:32:00,
2013-06-03 23:42:00,35.0,24.0,-100.00,ENE,62,7.0,9.0,64,0.00,,,0.00,0.000000,,2013-06-04 05:42:00,
2013-06-03 23:52:00,35.0,24.0,-100.00,ENE,62,7.0,9.0,64,0.00,,,0.00,0.000000,,2013-06-04 05:52:00,